Date,TemperatureHighF,TemperatureAvgF,TemperatureLowF,DewpointHighF,DewpointAvgF,DewpointLowF,HumidityHigh,HumidityAvg,HumidityLow,PressureMaxIn,PressureMinIn,WindSpeedMaxMPH,WindSpeedAvgMPH,GustSpeedMaxMPH,PrecipitationSumIn
2013-1-1,39.5,34.5,30.7,36.0,32.3,30.0,98,92,84,30.38,30.27,12,4,0,0.00
2013-1-2,41.6,35.2,31.1,34.0,30.2,28.0,88,82,73,30.27,30.14,10,3,0,0.00
2013-1-3,45.1,37.6,28.9,45.0,33.1,26.0,99,84,71,30.25,30.07,7,2,0,0.07
2013-1-4,48.1,44.1,40.4,47.0,43.6,40.0,100,98,93,30.29,30.13,6,0,0,0.03
2013-1-5,43.9,41.6,39.4,43.0,41.1,39.0,99,98,95,30.17,30.11,7,1,0,0.01
2013-1-6,47.3,43.4,41.1,46.0,42.6,41.0,100,97,90,30.21,30.09,3,0,0,0.06
2013-1-7,50.4,46.8,42.7,50.0,46.7,42.0,100,99,98,30.22,30.05,7,0,0,0.70
2013-1-8,50.0,48.1,45.6,50.0,47.8,45.0,100,99,95,30.21,29.94,9,1,0,0.38
2013-1-9,47.8,40.7,34.6,47.0,39.9,34.0,98,97,93,29.98,29.75,10,2,0,0.85
2013-1-10,39.0,34.8,32.1,39.0,34.3,32.0,99,98,94,30.14,29.98,12,2,0,0.54
2013-1-11,38.6,32.9,28.7,37.0,32.0,28.0,99,96,86,30.30,30.13,5,1,0,0.14
2013-1-12,35.9,30.2,27.0,33.0,28.6,26.0,98,94,74,30.38,30.27,9,1,0,0.00
2013-1-13,26.7,25.0,23.7,26.0,24.4,23.0,97,97,96,30.44,30.37,4,0,0,0.00
2013-1-18,46.1,40.3,36.4,38.0,36.3,35.0,93,86,72,30.22,30.20,0,0,0,0.00
2013-1-19,52.3,39.0,31.9,42.0,36.0,31.0,98,90,63,30.28,30.20,4,0,0,0.01
2013-1-20,49.4,37.3,29.3,41.0,32.9,29.0,100,85,59,30.28,30.17,5,1,0,0.01
2013-1-21,48.7,36.4,28.3,38.0,32.1,27.0,97,86,59,30.22,30.10,5,1,0,0.01
2013-1-22,50.7,38.6,29.6,39.0,33.5,29.0,97,83,56,30.10,29.90,4,0,0,0.00
2013-1-23,40.6,40.6,40.6,34.0,34.0,34.0,76,76,76,29.92,29.92,4,4,0,0.00
2013-1-24,47.9,44.9,43.4,47.0,44.2,43.0,98,97,95,30.14,30.10,3,1,0,0.13
2013-1-25,49.4,45.4,40.2,49.0,45.1,40.0,99,98,96,30.13,29.97,5,0,0,0.26
2013-1-26,44.5,39.9,36.8,44.0,39.3,36.0,99,97,91,30.10,29.94,8,0,0,0.58
2013-1-27,39.9,37.2,34.8,40.0,36.9,35.0,100,99,98,30.17,30.07,4,0,0,0.72
2013-1-28,43.0,41.0,38.4,43.0,40.7,38.0,99,98,97,30.25,30.11,11,2,0,0.36
2013-1-29,45.2,43.1,41.5,45.0,42.5,41.0,99,98,97,30.50,30.26,8,2,0,0.14
2013-1-30,47.8,43.9,41.5,48.0,43.9,41.0,100,99,99,30.51,30.44,5,0,0,0.24
2013-1-31,53.2,45.7,41.8,50.0,44.9,42.0,100,97,86,30.44,30.32,3,0,0,0.01